Time,TemperatureF,DewpointF,PressureIn,WindDirection,WindDirectionDegrees,WindSpeedMPH,WindSpeedGustMPH,Humidity,HourlyPrecipIn,Conditions,Clouds,dailyrainin,SolarRadiationWatts/m^2,SoftwareType,DateUTC
2013-02-08 00:07:00,34.3,33.0,29.75,NW,310,0.0,7.0,95,0.00,,,0.10,0,weatherlink.com 1.10,2013-02-08 05:07:00,
2013-02-08 00:22:00,34.0,33.0,29.77,NW,309,4.0,8.0,95,0.00,,,0.10,0,weatherlink.com 1.10,2013-02-08 05:22:00,
2013-02-08 00:37:00,33.7,33.0,29.77,NW,319,5.0,9.0,95,0.00,,,0.10,0,weatherlink.com 1.10,2013-02-08 05:37:00,
2013-02-08 00:52:00,33.6,32.0,29.77,North,359,3.0,9.0,95,0.00,,,0.10,0,weatherlink.com 1.10,2013-02-08 05:52:00,
2013-02-08 01:07:00,33.7,33.0,29.77,North,359,3.0,10.0,96,0.00,,,0.10,0,weatherlink.com 1.10,2013-02-08 06:07:00,
2013-02-08 01:22:00,33.6,32.0,29.78,NW,316,13.0,16.0,95,0.00,,,0.10,0,weatherlink.com 1.10,2013-02-08 06:22:00,
2013-02-08 01:37:00,33.4,32.0,29.78,North,359,10.0,16.0,96,0.00,,,0.10,0,weatherlink.com 1.10,2013-02-08 06:37:00,
2013-02-08 01:52:00,33.4,32.0,29.79,WNW,287,11.0,18.0,96,0.00,,,0.10,0,weatherlink.com 1.10,2013-02-08 06:52:00,
2013-02-08 02:07:00,33.5,33.0,29.79,WNW,288,10.0,17.0,96,0.00,,,0.10,0,weatherlink.com 1.10,2013-02-08 07:07:00,
2013-02-08 02:22:00,33.7,33.0,29.80,NNW,341,6.0,14.0,96,0.00,,,0.10,0,weatherlink.com 1.10,2013-02-08 07:22:00,
2013-02-08 02:37:00,33.9,33.0,29.80,NW,326,6.0,15.0,95,0.00,,,0.10,0,weatherlink.com 1.10,2013-02-08 07:37:00,
2013-02-08 02:53:00,34.1,33.0,29.81,NW,322,10.0,15.0,94,0.00,,,0.10,0,weatherlink.com 1.10,2013-02-08 07:53:00,
2013-02-08 03:08:00,34.4,33.0,29.81,WNW,291,13.0,14.0,94,0.00,,,0.10,0,weatherlink.com 1.10,2013-02-08 08:08:00,
2013-02-08 03:23:00,34.5,33.0,29.82,NW,308,8.0,14.0,93,0.00,,,0.10,0,weatherlink.com 1.10,2013-02-08 08:23:00,
2013-02-08 03:38:00,34.6,33.0,29.82,NNW,347,9.0,16.0,92,0.00,,,0.10,0,weatherlink.com 1.10,2013-02-08 08:38:00,
2013-02-08 03:52:00,34.6,32.0,29.82,North,354,8.0,12.0,91,0.00,,,0.10,0,weatherlink.com 1.10,2013-02-08 08:52:00,
2013-02-08 04:07:00,34.3,32.0,29.84,North,354,8.0,17.0,90,0.00,,,0.10,0,weatherlink.com 1.10,2013-02-08 09:07:00,
2013-02-08 04:23:00,33.9,31.0,29.84,North,359,3.0,16.0,90,0.00,,,0.10,0,weatherlink.com 1.10,2013-02-08 09:23:00,
2013-02-08 04:37:00,33.6,31.0,29.85,NNW,339,9.0,21.0,89,0.01,,,0.11,0,weatherlink.com 1.10,2013-02-08 09:37:00,
2013-02-08 04:52:00,33.5,30.0,29.87,NW,307,6.0,21.0,88,0.01,,,0.11,0,weatherlink.com 1.10,2013-02-08 09:52:00,
2013-02-08 05:07:00,33.3,30.0,29.88,WNW,301,13.0,18.0,89,0.01,,,0.11,0,weatherlink.com 1.10,2013-02-08 10:07:00,
2013-02-08 05:22:00,33.1,30.0,29.89,North,4,7.0,17.0,88,0.01,,,0.11,0,weatherlink.com 1.10,2013-02-08 10:22:00,
2013-02-08 05:37:00,32.8,30.0,29.90,NNW,335,13.0,19.0,88,0.00,,,0.00,0,weatherlink.com 1.10,2013-02-08 10:37:00,
2013-02-08 05:52:00,32.6,30.0,29.91,NNW,337,8.0,14.0,88,0.00,,,0.00,0,weatherlink.com 1.10,2013-02-08 10:52:00,
2013-02-08 06:07:00,32.5,29.0,29.91,NNW,332,14.0,18.0,87,0.00,,,0.00,0,weatherlink.com 1.10,2013-02-08 11:07:00,
2013-02-08 06:23:00,32.3,29.0,29.92,NNW,335,14.0,16.0,87,0.00,,,0.00,0,weatherlink.com 1.10,2013-02-08 11:23:00,
2013-02-08 06:38:00,32.1,29.0,29.93,NW,316,10.0,17.0,87,0.00,,,0.00,0,weatherlink.com 1.10,2013-02-08 11:38:00,
2013-02-08 06:53:00,31.9,28.0,29.94,NNW,340,8.0,19.0,86,0.00,,,0.00,0,weatherlink.com 1.10,2013-02-08 11:53:00,
2013-02-08 07:08:00,31.8,28.0,29.95,NW,321,10.0,23.0,87,0.00,,,0.00,0,weatherlink.com 1.10,2013-02-08 12:08:00,
2013-02-08 07:23:00,31.6,28.0,29.96,NNW,337,8.0,19.0,86,0.00,,,0.00,0,weatherlink.com 1.10,2013-02-08 12:23:00,
2013-02-08 07:38:00,31.5,28.0,29.97,NW,305,4.0,20.0,87,0.00,,,0.00,0,weatherlink.com 1.10,2013-02-08 12:38:00,
2013-02-08 07:53:00,31.3,28.0,29.98,WNW,295,11.0,18.0,86,0.00,,,0.00,0,weatherlink.com 1.10,2013-02-08 12:53:00,
2013-02-08 08:08:00,31.0,27.0,29.99,NNW,339,8.0,17.0,85,0.00,,,0.00,7,weatherlink.com 1.10,2013-02-08 13:08:00,
2013-02-08 08:23:00,30.8,27.0,30.00,NNW,328,12.0,15.0,86,0.00,,,0.00,26,weatherlink.com 1.10,2013-02-08 13:23:00,
2013-02-08 08:38:00,30.8,27.0,30.01,NNW,339,9.0,14.0,86,0.00,,,0.00,72,weatherlink.com 1.10,2013-02-08 13:38:00,
2013-02-08 08:53:00,30.9,27.0,30.02,North,11,4.0,12.0,86,0.00,,,0.00,40,weatherlink.com 1.10,2013-02-08 13:53:00,
2013-02-08 09:08:00,31.1,27.0,30.03,North,354,6.0,13.0,86,0.00,,,0.00,46,weatherlink.com 1.10,2013-02-08 14:08:00,
2013-02-08 09:23:00,31.2,27.0,30.04,NE,38,3.0,15.0,85,0.00,,,0.00,56,weatherlink.com 1.10,2013-02-08 14:23:00,
2013-02-08 09:38:00,31.4,27.0,30.05,North,4,2.0,10.0,85,0.00,,,0.00,63,weatherlink.com 1.10,2013-02-08 14:38:00,
2013-02-08 09:53:00,31.5,28.0,30.07,NNW,340,6.0,11.0,85,0.00,,,0.00,69,weatherlink.com 1.10,2013-02-08 14:53:00,
2013-02-08 10:09:00,31.6,28.0,30.08,North,354,2.0,12.0,85,0.00,,,0.00,88,weatherlink.com 1.10,2013-02-08 15:09:00,
2013-02-08 10:23:00,31.7,27.0,30.08,NNW,337,16.0,17.0,83,0.00,,,0.00,118,weatherlink.com 1.10,2013-02-08 15:23:00,
2013-02-08 10:38:00,31.8,27.0,30.09,NW,326,7.0,16.0,83,0.00,,,0.00,255,weatherlink.com 1.10,2013-02-08 15:38:00,
2013-02-08 11:08:00,32.3,27.0,30.09,North,8,8.0,14.0,80,0.00,,,0.00,178,weatherlink.com 1.10,2013-02-08 16:08:00,
2013-02-08 11:24:00,32.5,27.0,30.10,NW,321,3.0,17.0,79,0.00,,,0.00,232,weatherlink.com 1.10,2013-02-08 16:24:00,
2013-02-08 11:39:00,32.6,27.0,30.12,NNE,21,5.0,18.0,80,0.00,,,0.00,185,weatherlink.com 1.10,2013-02-08 16:39:00,
2013-02-08 11:54:00,32.0,27.0,30.13,North,354,5.0,16.0,81,0.00,,,0.00,188,weatherlink.com 1.10,2013-02-08 16:54:00,
2013-02-08 12:09:00,31.8,26.0,30.14,NNW,339,2.0,16.0,79,0.00,,,0.00,257,weatherlink.com 1.10,2013-02-08 17:09:00,
2013-02-08 12:24:00,31.7,26.0,30.14,North,354,6.0,14.0,79,0.00,,,0.00,269,weatherlink.com 1.10,2013-02-08 17:24:00,
2013-02-08 12:39:00,31.9,26.0,30.14,North,349,7.0,13.0,79,0.00,,,0.00,250,weatherlink.com 1.10,2013-02-08 17:39:00,
2013-02-08 12:54:00,31.9,25.0,30.13,North,354,14.0,19.0,77,0.00,,,0.00,304,weatherlink.com 1.10,2013-02-08 17:54:00,
2013-02-08 13:09:00,32.3,26.0,30.13,NNW,343,7.0,15.0,77,0.00,,,0.00,334,weatherlink.com 1.10,2013-02-08 18:09:00,
2013-02-08 13:24:00,32.0,25.0,30.14,North,4,3.0,17.0,76,0.00,,,0.00,267,weatherlink.com 1.10,2013-02-08 18:24:00,
2013-02-08 13:39:00,32.5,26.0,30.15,North,354,6.0,18.0,76,0.00,,,0.00,374,weatherlink.com 1.10,2013-02-08 18:39:00,
2013-02-08 13:54:00,32.9,26.0,30.15,North,4,5.0,16.0,75,0.00,,,0.00,323,weatherlink.com 1.10,2013-02-08 18:54:00,
2013-02-08 14:09:00,33.7,27.0,30.15,NW,305,6.0,18.0,75,0.00,,,0.00,645,weatherlink.com 1.10,2013-02-08 19:09:00,
2013-02-08 14:24:00,33.5,26.0,30.15,NNE,26,6.0,16.0,74,0.00,,,0.00,645,weatherlink.com 1.10,2013-02-08 19:24:00,
2013-02-08 14:39:00,33.7,25.0,30.16,NNW,331,6.0,18.0,71,0.00,,,0.00,615,weatherlink.com 1.10,2013-02-08 19:39:00,
2013-02-08 14:54:00,33.1,25.0,30.16,NNW,332,7.0,18.0,73,0.00,,,0.00,116,weatherlink.com 1.10,2013-02-08 19:54:00,
2013-02-08 15:09:00,33.1,25.0,30.16,NNW,335,10.0,18.0,72,0.00,,,0.00,501,weatherlink.com 1.10,2013-02-08 20:09:00,
2013-02-08 15:24:00,34.0,26.0,30.17,North,354,10.0,13.0,71,0.00,,,0.00,483,weatherlink.com 1.10,2013-02-08 20:24:00,
2013-02-08 15:39:00,33.9,25.0,30.18,NE,45,3.0,16.0,69,0.00,,,0.00,441,weatherlink.com 1.10,2013-02-08 20:39:00,
2013-02-08 15:54:00,33.2,24.0,30.18,North,349,11.0,16.0,70,0.00,,,0.00,411,weatherlink.com 1.10,2013-02-08 20:54:00,
2013-02-08 16:09:00,33.0,25.0,30.19,NW,322,8.0,16.0,72,0.00,,,0.00,374,weatherlink.com 1.10,2013-02-08 21:09:00,
2013-02-08 16:24:00,32.9,24.0,30.18,WSW,255,9.0,14.0,71,0.00,,,0.00,137,weatherlink.com 1.10,2013-02-08 21:24:00,
2013-02-08 16:40:00,33.8,25.0,30.19,North,4,5.0,14.0,69,0.00,,,0.00,120,weatherlink.com 1.10,2013-02-08 21:40:00,
2013-02-08 16:54:00,33.7,24.0,30.20,NNW,343,16.0,16.0,68,0.00,,,0.00,237,weatherlink.com 1.10,2013-02-08 21:54:00,
2013-02-08 17:10:00,32.7,24.0,30.20,NW,312,4.0,14.0,70,0.00,,,0.00,77,weatherlink.com 1.10,2013-02-08 22:10:00,
2013-02-08 17:24:00,32.4,24.0,30.20,NW,317,3.0,12.0,72,0.00,,,0.00,30,weatherlink.com 1.10,2013-02-08 22:24:00,
2013-02-08 17:39:00,32.1,23.0,30.20,North,4,10.0,15.0,70,0.00,,,0.00,18,weatherlink.com 1.10,2013-02-08 22:39:00,
2013-02-08 17:55:00,32.0,24.0,30.21,NNE,23,6.0,12.0,71,0.00,,,0.00,7,weatherlink.com 1.10,2013-02-08 22:55:00,
2013-02-08 18:10:00,31.8,24.0,30.23,North,359,5.0,16.0,72,0.00,,,0.00,0,weatherlink.com 1.10,2013-02-08 23:10:00,
2013-02-08 18:24:00,31.7,24.0,30.23,North,4,8.0,12.0,72,0.00,,,0.00,0,weatherlink.com 1.10,2013-02-08 23:24:00,
2013-02-08 18:39:00,31.7,24.0,30.24,NNE,12,6.0,13.0,72,0.00,,,0.00,0,weatherlink.com 1.10,2013-02-08 23:39:00,
2013-02-08 18:54:00,31.6,24.0,30.24,NNE,21,5.0,15.0,72,0.00,,,0.00,0,weatherlink.com 1.10,2013-02-08 23:54:00,
2013-02-08 19:09:00,31.6,24.0,30.25,NNE,14,2.0,11.0,73,0.00,,,0.00,0,weatherlink.com 1.10,2013-02-09 00:09:00,
2013-02-08 19:25:00,31.4,23.0,30.26,North,354,12.0,14.0,72,0.00,,,0.00,0,weatherlink.com 1.10,2013-02-09 00:25:00,
2013-02-08 19:40:00,31.4,23.0,30.27,North,349,6.0,9.0,72,0.00,,,0.00,0,weatherlink.com 1.10,2013-02-09 00:40:00,
2013-02-08 19:55:00,31.3,23.0,30.27,NNW,345,4.0,11.0,72,0.00,,,0.00,0,weatherlink.com 1.10,2013-02-09 00:55:00,
2013-02-08 20:10:00,31.0,22.0,30.28,NNE,12,8.0,13.0,70,0.00,,,0.00,0,weatherlink.com 1.10,2013-02-09 01:10:00,
2013-02-08 20:25:00,30.7,22.0,30.28,NNE,18,3.0,9.0,70,0.00,,,0.00,0,weatherlink.com 1.10,2013-02-09 01:25:00,
2013-02-08 20:40:00,30.6,22.0,30.27,NE,39,5.0,7.0,71,0.00,,,0.00,0,weatherlink.com 1.10,2013-02-09 01:40:00,
2013-02-08 20:55:00,30.3,22.0,30.28,NNE,13,2.0,7.0,72,0.00,,,0.00,0,weatherlink.com 1.10,2013-02-09 01:55:00,
2013-02-08 21:10:00,30.1,22.0,30.29,NNE,27,3.0,8.0,72,0.00,,,0.00,0,weatherlink.com 1.10,2013-02-09 02:10:00,
2013-02-08 21:25:00,30.0,22.0,30.29,NNE,18,3.0,8.0,72,0.00,,,0.00,0,weatherlink.com 1.10,2013-02-09 02:25:00,
2013-02-08 21:40:00,29.8,22.0,30.29,North,4,1.0,7.0,72,0.00,,,0.00,0,weatherlink.com 1.10,2013-02-09 02:40:00,
2013-02-08 21:55:00,29.6,22.0,30.30,North,354,1.0,6.0,73,0.00,,,0.00,0,weatherlink.com 1.10,2013-02-09 02:55:00,
2013-02-08 22:10:00,29.4,22.0,30.30,NNE,23,3.0,6.0,74,0.00,,,0.00,0,weatherlink.com 1.10,2013-02-09 03:10:00,
2013-02-08 22:25:00,29.3,22.0,30.30,NNW,345,2.0,9.0,73,0.00,,,0.00,0,weatherlink.com 1.10,2013-02-09 03:25:00,
2013-02-08 22:40:00,29.2,22.0,30.30,NNE,21,0.0,6.0,74,0.00,,,0.00,0,weatherlink.com 1.10,2013-02-09 03:40:00,
2013-02-08 22:55:00,28.9,22.0,30.30,NE,42,2.0,6.0,74,0.00,,,0.00,0,weatherlink.com 1.10,2013-02-09 03:55:00,
2013-02-08 23:10:00,28.6,22.0,30.30,NE,42,1.0,4.0,75,0.00,,,0.00,0,weatherlink.com 1.10,2013-02-09 04:10:00,
2013-02-08 23:25:00,28.3,21.0,30.30,NE,42,0.0,3.0,75,0.00,,,0.00,0,weatherlink.com 1.10,2013-02-09 04:25:00,
2013-02-08 23:40:00,28.0,21.0,30.31,NE,42,0.0,2.0,76,0.00,,,0.00,0,weatherlink.com 1.10,2013-02-09 04:40:00,
2013-02-08 23:55:00,27.7,21.0,30.31,NE,42,0.0,1.0,77,0.00,,,0.00,0,weatherlink.com 1.10,2013-02-09 04:55:00,